Other Surface Observations
Issued by NWS Charleston, SC

Home | Current Version | Previous Version | Text Only | Print | Product List | Glossary On
Versions: 1 2 3 4 5 6 7 8 9 10 11 12 13 14 15 16 17 18 19 20 21 22 23 24 25 26 27 28 29 30 31 32 33 34 35 36 37 38 39 40 41 42 43 44 45 46 47 48 49 50
000
SXUS52 KCHS 011225
OSOCHS

MARINE OBSERVATIONS
NATIONAL WEATHER SERVICE CHARLESTON SC
800 AM EDT MON SEP 01 2014

...DOWNTOWN CHARLESTON AND HARBOR...

CITY           SKY/WX    TMP DP  RH WIND       PRES   REMARKS
WATERFRONT PRK   N/A     81 N/A N/A CALM        N/A
FORT JOHNSON   NOT AVBL

...LAKE MOULTRIE...

CITY           SKY/WX    TMP DP  RH WIND       PRES   REMARKS
PINOPOLIS        N/A     82  75  78 MISG      30.04R

...LAKE AND SUPPLEMENTAL COASTAL OBSERVATIONS...

STATION/POSITION TIME  TEMP    WIND        PRES    WAVE   SWELL
                       AIR SEA DIR/SP/G            HT/PER HT/PER/DIR
                 (UTC) (F)     (DEG/KT/KT) (MB)    (FT/S) (FT/S/D)
FORT PULASKI     1200   78     310/  3/  4 1020.2R
SAPELO ISLAND    1200   79     330/  3     1020.0S
UPR LAKE MARION  NOT AVBL
WINYAH BAY       1200   77        CALM     1020.0R
LAKE MURRAY      1200   76      CALM  /  2 1019.6R
ACE BASIN NERRS  1200   76        CALM     1020.0R


...C-MAN AND BUOY OBSERVATIONS...

STATION/POSITION TIME  TEMP    WIND        PRES    WAVE   SWELL
                       AIR SEA DIR/SP/G            HT/PER HT/PER/DIR
                 (UTC) (F)     (DEG/KT/KT) (MB)    (FT/S) (FT/S/D)
BUOY 41004       1200   82 83  280/  4/  6 1019.6R   3/ 8   2/ 8
BUOY 41008       1200   82 84  250/  4/  6 1019.6R   2/ 8   2/ 90/ 8
FOLLY BEACH CMAN 1200   81     310/  2/  2 1020.3R
CAPERS NS BUOY   1100   82     290/  6/  8   N/A
FRIPP NS BUOY    NOT AVBL
5E ST. MARYS GA  1200      84                N/A     2/ 8
FRYING PAN BUOY  NOT AVBL
BUOY 41025       1200   82     240/ 14/ 16 1020.0R   3/ 9   2/110/ 9
CAPE LOOKOUT NC  1200   81     220/  5/  7 1020.0S
BUOY 41002       1148   81 83  190/  6/  8 1021.7R   3/ 8   3/120/ 8
BUOY 41010       1200   82 84   90/  6/ 10 1020.0R   3/ 9   3/ 90/ 9
BUOY 41012       NOT AVBL
ST AUGUSTINE FL  1200   79      CALM  /  1 1020.6R


$$



USA.gov is the U.S. government's official web portal to all federal, state and local government web resources and services.